Location: NovaLab Observatory
(42.8167°N, 71.2500°W)
Time: 15:13:55
(UTC-04:00)

Daily predictions for brighter satellites

Satellite Brightness Start Highest point End
(mag) Time Altitude Azimuth Time Altitude Azimuth Time Altitude Azimuth
ARGOS 3.7 20:52:42 10° SE 20:57:51 47° ENE 21:03:02 10° N
Cosmos 2266 Rocket 4.1 20:51:39 10° N 20:58:04 67° E 21:04:21 10° SSE
Cosmos 1346 Rocket 4.4 20:57:28 10° NNE 21:00:32 21° ENE 21:03:36 10° ESE
NOSS 2-3 (E) 3.9 20:58:02 10° SW 21:02:36 86° NW 21:07:57 10° NE
Cosmos 1470 3.5 21:00:11 10° NNW 21:04:00 55° W 21:07:49 10° S
NOAA 11 4.4 20:58:43 10° S 21:04:08 74° WSW 21:09:35 10° NNW
Cosmos 1844 Rocket 3.7 21:02:37 10° SSE 21:07:15 27° ESE 21:11:54 10° NE
Meteor 1-24 Rocket 4.5 21:03:04 10° SSE 21:08:34 39° E 21:14:05 10° NNE
MetOp-A 4.4 21:05:25 10° SSE 21:10:39 57° ENE 21:15:54 10° N
ATLAS 2AS CENTAUR R/B 3.5 21:05:46 10° S 21:12:51 40° ESE 21:20:14 10° NE
Meteor 2-5 Rocket 3.9 21:12:05 10° S 21:17:58 69° E 21:23:52 10° NNE
SPOT 5 4.1 21:20:05 10° SE 21:24:25 31° ENE 21:29:00 10° N
NOSS 8 (A) 4.3 21:21:46 10° SSW 21:25:00 57° ESE 21:28:08 10° NE
Lacrosse 5 1.9 21:25:55 10° SSW 21:30:54 62° SE 21:35:55 10° NE
ERS-1 Rocket 3.3 21:26:47 11° SSE 21:31:27 54° ENE 21:36:22 10° N
Cosmos 1238 Rocket 2.2 21:29:20 10° S 21:32:12 52° E 21:35:08 10° NNE
Iridium 4 Rocket 3.7 21:28:14 10° S 21:33:57 88° W 21:39:17 10° N
Cosmos 1908 4.1 21:33:56 10° N 21:37:30 34° ENE 21:40:02 16° SE
Cosmos 2263 Rocket 3.7 21:32:33 10° SW 21:37:52 40° WNW 21:43:12 10° NNE
Cosmos-2242 3.2 21:34:06 10° N 21:38:27 57° E 21:42:02 15° SSE
Cosmos 1048 Rocket 4.1 21:33:52 10° SSW 21:39:10 89° ESE 21:44:34 10° NNE
OE (NEXTSAT) 4.3 21:38:30 10° WNW 21:42:03 90° NNE 21:44:47 16° ESE
USA 215 4.4 21:38:08 10° S 21:43:56 33° SW 21:49:47 10° WNW
GENESIS II 4.1 21:44:20 10° SSW 21:48:12 86° ESE 21:52:09 10° NE
Cosmos 2084 3.3 21:44:22 10° NNW 21:48:13 66° NE 21:50:47 20° SE
SL-8 R/B 3.9 21:46:47 10° SW 21:51:24 46° SE 21:56:01 10° ENE
OAO 3 Rocket 4.0 21:47:27 10° WSW 21:51:52 33° S 21:54:45 18° SE
CZ-2C R/B 4.3 21:49:14 10° NE 21:52:32 16° E 21:54:19 14° ESE
Cosmos 1953 Rocket 3.8 21:50:54 10° SSW 21:55:13 71° W 21:59:37 10° N
Resurs 01 Rocket 4.2 21:52:41 10° SW 21:55:31 17° W 21:58:22 10° NW
In-Cosmos 22 4.4 21:50:28 10° SSW 21:55:58 75° W 22:01:40 10° N
Cosmos 1315 Rocket 3.7 21:53:45 10° SSW 21:57:41 52° WNW 22:01:43 10° N
Cosmos 1340 3.5 21:55:47 10° N 21:59:18 35° ENE 22:01:04 22° SE
Cosmos 1758 Rocket 4.5 21:56:36 10° SSW 22:00:55 50° WNW 22:05:15 10° N
Cosmos 1626 4.5 22:00:45 10° E 22:01:01 10° E 22:01:27 10° ENE
Helios 1A 3.1 21:59:46 21° SSE 22:02:24 62° ENE 22:06:35 10° N
Cosmos 1300 4.0 22:07:25 10° NNE 22:10:42 26° ENE 22:12:00 22° ESE
Cosmos 1674 2.6 22:08:27 16° S 22:11:22 88° W 22:15:13 10° N
Landsat 7 3.9 22:11:37 23° SSE 22:14:32 69° ENE 22:19:17 10° N
Timation 1 Rocket 4.3 22:09:52 10° SSW 22:15:48 82° ESE 22:21:49 10° NNE
Helios 1B rocket 2.6 22:12:03 10° NNE 22:16:04 50° E 22:18:01 27° SSE
SPOT 1/Viking Rocket 3.5 22:12:48 21° SSE 22:16:18 87° ENE 22:21:29 10° NNW
Cosmos 1437 4.1 22:13:46 10° NNW 22:16:41 34° W 22:18:41 17° SSW
H-2A R/B 3.0 22:11:51 10° S 22:16:48 44° W 22:21:57 10° NNW
Cosmos 1110 Rocket 3.9 22:14:14 10° NNW 22:19:25 86° WSW 22:22:33 24° SSE
ATLAS 3B CENTAUR R/B 4.4 22:09:29 10° SW 22:20:01 22° S 22:22:18 20° SSE
APEX 3.9 22:19:32 10° N 22:22:20 33° ENE 22:23:24 27° E
Cosmos 1745 Rocket 4.0 22:17:13 10° N 22:23:34 71° E 22:27:32 24° SSE
Cosmos 2278 Rocket 2.8 22:23:34 25° SSE 22:26:08 38° ESE 22:31:21 10° NE
Cosmos 2221 3.3 22:23:45 10° N 22:27:46 36° ENE 22:29:15 28° ESE
Terra 1.8 22:31:35 30° SSE 22:33:54 70° ENE 22:38:39 10° N
COSMOS 2406 3.2 22:28:31 10° NNW 22:34:20 86° WSW 22:37:28 28° SSE
Cosmos 921 Rocket 3.7 22:30:21 10° NNW 22:34:42 51° WSW 22:37:08 24° SSW
Cosmos 1331 Rocket 4.1 22:29:38 10° NNW 22:34:49 71° WSW 22:37:39 27° S
Cosmos 1726 2.4 22:31:35 10° NNW 22:35:18 63° W 22:36:55 31° SSW
USA 238 DEB 3.8 22:28:34 10° NW 22:35:44 82° WSW 22:40:07 26° SSE
USA 238 3.8 22:28:40 10° NW 22:35:50 83° WSW 22:40:13 26° SSE
SL-14 R/B 3.3 22:35:37 39° SSE 22:36:45 56° E 22:40:36 10° NNE
Cosmos 1346 Rocket 4.4 22:33:26 10° NNW 22:36:55 29° W 22:39:41 14° SSW
Meteor 2-10 4.2 22:31:54 10° NNW 22:37:19 80° W 22:40:34 26° S
ATLAS 3B R/B 2.6 22:32:36 10° NW 22:39:16 82° NE 22:43:03 28° SE
Spot 1 4.0 22:38:44 35° SSE 22:40:33 84° ENE 22:45:07 10° NNW
Cosmos 494 Rocket 4.5 22:38:54 10° SSW 22:44:04 61° WNW 22:49:19 10° NNE
Cosmos 1844 4.1 22:41:42 10° SW 22:47:20 63° WNW 22:53:05 10° NNE
NOSS 3-2 (A) 4.1 22:41:48 10° NW 22:49:23 82° NE 22:54:21 27° SE
Meteor 2-13 Rocket 4.4 22:43:36 10° N 22:49:41 82° W 22:53:08 28° S
S3M 4.3 22:45:02 15° SSW 22:50:24 69° W 22:56:48 10° N
Nimbus 7 Rocket 4.4 22:44:42 10° NNE 22:50:43 71° ESE 22:54:09 27° S
Cosmos 1844 Rocket 3.7 22:45:26 10° SW 22:50:52 46° WNW 22:56:19 10° NNE
CARTOSAT-1 3.9 22:53:06 33° SSW 22:54:51 59° W 22:59:08 10° NNW
CZ-2C R/B 3.3 22:53:48 31° SSE 22:56:45 87° WSW 23:02:34 10° NNW
Cosmos 1709 Rocket 4.1 22:51:00 10° N 22:57:13 65° E 23:00:00 33° SSE
Cosmos 1302 Rocket 4.0 22:56:01 10° NNW 23:01:19 75° WSW 23:03:25 37° S
SPOT 5 4.3 22:59:19 18° SSW 23:02:22 34° W 23:07:06 10° NNW
Cosmos 2251 Rocket 3.6 22:59:38 22° SSW 23:03:09 81° WNW 23:08:31 10° NNE
ATLAS 2AS CENTAUR R/B 3.8 22:55:58 10° SW 23:03:42 56° NW 23:11:41 10° NNE
Cosmos 1461 3.1 23:03:08 41° S 23:04:37 65° ESE 23:09:21 10° NE
YAOGAN 11 4.2 23:03:10 42° S 23:04:42 79° WSW 23:09:17 10° NNW
SAR-Lupe-4 4.4 23:04:44 35° E 23:05:03 36° ENE 23:08:21 10° N
Cosmos 1703 4.4 23:05:27 28° E 23:05:27 28° E 23:08:41 10° NNE
Cosmos 220 Rocket 4.5 23:04:00 22° SW 23:06:31 56° WNW 23:10:41 10° NNE
RESURS DK-1 3.9 23:12:25 23° E 23:12:25 23° E 23:14:54 10° NE
NOSS 3-2 (C) 4.0 23:05:37 10° NW 23:13:13 85° NE 23:17:42 31° SE
ATLAS 5 CENTAUR R/B 1.9 23:13:17 44° ESE 23:13:22 44° ESE 23:17:58 10° NE
Cosmos 2082 Rocket 2.9 23:07:52 10° NNW 23:13:23 46° ENE 23:15:51 29° ESE
Lacrosse 5 3.7 23:09:39 10° W 23:14:10 32° NNW 23:18:42 10° NE
Cosmos 1766 Rocket 4.1 23:17:39 41° ESE 23:18:04 42° E 23:22:18 10° NNE
Cosmos 1408 Rocket 4.4 23:19:15 35° E 23:19:33 35° E 23:23:37 10° NNE
Cosmos 1833 Rocket 3.0 23:15:11 10° NNW 23:20:44 58° ENE 23:22:51 36° ESE
Cosmos 1992 Rocket 4.3 23:15:58 10° NNW 23:21:07 58° ENE 23:22:44 40° SE
Cosmos 1076 Rocket 3.4 23:21:29 56° SSW 23:22:21 85° W 23:26:38 10° N
SAR-Lupe-1 4.5 23:22:54 49° ENE 23:22:58 49° ENE 23:26:28 10° N
CZ-4 R/B 4.3 23:18:35 10° NNE 23:23:06 41° E 23:23:35 39° ESE
Cosmos 2315 Rocket 4.0 23:24:28 33° SSW 23:27:32 83° W 23:33:55 10° N
SL-08 ROCKET BODY 4.4 23:26:46 10° N 23:32:59 83° W 23:35:21 41° S
CZ-2C R/B 2.9 23:27:54 10° N 23:33:20 67° WNW 23:35:50 32° SW
SL-8 R/B 4.3 23:29:08 10° W 23:33:55 59° NNW 23:38:42 10° ENE
H-2A R/B 3.8 23:33:27 19° E 23:34:19 20° ENE 23:37:21 10° NNE
Aureole 3 Rocket 4.3 23:30:26 30° S 23:34:49 84° W 23:40:47 10° N
Cosmos 1626 2.7 23:35:20 47° WSW 23:35:49 51° W 23:39:28 10° N
SL-19 R/B 4.4 23:31:33 10° NNE 23:36:55 52° E 23:37:57 45° SE
Meteor 2-19 Rocket 4.4 23:31:13 10° N 23:37:24 87° W 23:39:37 43° S
NOSS 2-2 (E) 3.3 23:39:41 65° SW 23:40:14 84° NW 23:44:43 10° NE
NOSS 3-4 (A) 3.5 23:35:38 17° SW 23:40:31 77° NW 23:47:00 10° NE
NOSS 3-4 (C) 3.5 23:35:49 18° SW 23:40:36 78° NW 23:47:05 10° NE
Mayak -0.4 23:36:44 10° NNE 23:40:22 36° E 23:40:22 36° E
Cosmos 1328 4.3 23:41:24 45° WSW 23:42:03 50° W 23:45:55 10° N
Okean 3 Rocket 3.9 23:42:56 45° SW 23:43:55 58° W 23:48:15 10° N
CZ-4C R/B 4.5 23:45:02 32° E 23:45:22 32° ENE 23:48:51 10° N
Cosmos 2184 Rocket 4.2 23:39:39 10° N 23:45:57 63° E 23:48:03 41° SE
Cosmos 1455 2.1 23:42:27 10° N 23:46:06 76° NE 23:46:06 76° NE
Meteor 1-11 4.2 23:45:43 45° S 23:47:37 89° W 23:53:27 10° N
Cosmos 407 Rocket 4.1 23:48:04 38° ESE 23:48:19 38° ESE 23:53:04 10° NE
CENTAUR R/B 3.2 23:41:32 10° NW 23:49:30 76° NE 23:54:14 30° SE
ADEOS Rocket 3.3 23:46:05 10° NNE 23:51:52 52° E 23:53:31 42° SE
Cosmos 2151 3.4 23:52:47 47° E 23:52:47 47° E 23:56:49 10° NNE
Cosmos 2228 Rocket 3.9 23:48:43 10° N 23:52:55 39° ENE 23:53:23 38° E
